Regional Weather Roundup
Issued by NWS Wakefield, VA

Home | Current Version | Previous Version | Graphics & Text | Print | Product List | Glossary On
Versions: 1 2 3 4 5 6 7 8 9 10 11 12 13 14 15 16 17 18 19 20 21 22 23 24 25 26 27 28 29
000
ASUS41 KAKQ 262115
RWRAKQ

REGIONAL WEATHER ROUNDUP
NATIONAL WEATHER SERVICE WAKEFIELD VA
500 PM EDT TUE JUL 26 2016

Note: "fair" indicates few or no clouds below 12,000 feet with no
significant weather and/or obstructions to visibility. * = Denotes
station may not report precipitation (e.g., rain,snow,etc.),
thunder or fog.

VAZ042-051-052>054-056-262200-
NORTHERN VIRGINIA

CITY           SKY/WX    TMP DP  RH WIND       PRES   REMARKS
WASH NATIONAL  PTSUNNY   93  70  46 N10       29.91F HX  99
DULLES         PTSUNNY   93  66  40 NW12      29.93F HX  96
FORT BELVOIR   NOT AVBL
QUANTICO       PTSUNNY   95  69  42 CALM      29.91F HX 100
FREDERICKSBRG*   N/A     94  76  54 E6        29.90S HX 106
STAFFORD*      FAIR      95  66  38 CALM      29.95S HX  98
WARRENTON      FAIR      95  64  35 NE5       29.92S HX  97
CULPEPER*      FAIR      93  76  58 CALM      29.93S HX 105
MANASSAS*      PTSUNNY   93  70  46 NW9       29.92F HX  99
LEESBURG*      FAIR      90  72  55 NW7G20    29.94F HX  96
WINCHESTER     FAIR      86  70  58 NW6       29.96S
FRONT ROYAL*   MOCLDY    91  72  52 N9        29.94S HX  98
LURAY*         FAIR      90  70  51 N6        29.95S HX  95
$$

VAZ048-049-060>072-079>083-262200-
CENTRAL AND SOUTH CENTRAL VIRGINIA

CITY           SKY/WX    TMP DP  RH WIND       PRES   REMARKS
RICHMOND       PTSUNNY   94  74  52 E5        29.90F HX 104
CHESTERFIELD*  FAIR      99  66  34 N3        29.91F HX 102
PETERSBURG*    FAIR      94  77  57 S3        29.92S HX 107
HANOVER        FAIR      96  71  44 NE6       29.92F HX 103
TAPPAHANNOCK*  FAIR      95  70  43 NE6       29.91F HX 101
QUINTON*       FAIR      93  76  57 CALM      29.90F HX 106
CHARLOTTSVILLE FAIR      92  72  51 N9        29.93S HX  99
GORDONSVILLE*  MOCLDY    92  76  59 S5        29.92S HX 104
ORANGE*          N/A     91  72  52 CALM      29.94F HX  98
LOUISA*        PTSUNNY   97  79  56 CALM      29.92S HX 115
BUMPASS*       FAIR      92  73  52 CALM      29.91F HX 101
FARMVILLE*     NOT AVBL
CREWE*         FAIR      85  83  95 CALM      29.92F HX 103
FORT PICKETT*  FAIR      90  78  66 N3        29.93S HX 104
CHASE CITY*    FAIR      96  68  40 CALM      29.91F HX 100
CLARKSVILLE*   FAIR      95  73  49 W7        29.91F HX 105
SOUTH HILL*    PTSUNNY   89  76  65 N8G16     29.97S HX 100
LAWRENCEVILLE* MOCLDY    86  73  65 SE9       29.92R
EMPORIA*       PTSUNNY   81  73  78 SE6       29.95R
$$

VAZ088>098-262200-
SOUTHEAST VIRGINIA

CITY           SKY/WX    TMP DP  RH WIND       PRES   REMARKS
NORFOLK        FAIR      93  77  59 E8        29.91S HX 107
VIRGINIA BEACH PTSUNNY   93  77  59 E9        29.90S HX 107
NORFOLK NAVAL  PTSUNNY   91  76  61 E9        29.92F HX 103
WEST POINT*    PTSUNNY   83  73  72 E3        29.91F
SALUDA*        FAIR      87  79  77 CALM      29.92S HX 100
NEWPORT NEWS   FAIR      90  78  68 E8        29.91F HX 104
LANGLEY AFB    FAIR      89  78  71 SE8       29.91F HX 103
FORT EUSTIS    NOT AVBL
WILLIAMSBURG*  FAIR      95  79  59 CALM      29.92S HX 112
HR EXEC AP*    FAIR      93  77  59 E12       29.92S HX 107
FRANKLIN*      CLOUDY    80  71  74 SW12G26   29.93R THUNDER
US460-WAKEFLD  FAIR      94  76  55 CALM      29.91S HX 106
$$

VAZ020-022-025-037-045-262200-
WEST CENTRAL AND SOUTHWEST VIRGINIA

CITY           SKY/WX    TMP DP  RH WIND       PRES   REMARKS
STAUNTON*      CLOUDY    77  72  84 N8        30.01S
WAYNESBORO*    CLOUDY    82  69  64 NE5       30.02S
HOT SPRINGS VA FAIR      81  70  69 CALM      30.14F
LYNCHBURG      FAIR      93  70  46 SW6       29.95F HX  99
DANVILLE       FAIR      95  71  45 W3        29.93F HX 102
SOUTH BOSTON*  FAIR      96  72  45 S6        29.91F HX 105
MARTINSVILLE   FAIR      89  72  56 CALM      29.99S HX  96
ROANOKE        FAIR      96  68  39 W5        29.98F HX 101
BLACKSBURG     FAIR      90  69  51 W5        30.07F
DUBLIN*        FAIR      88  71  57 S5        30.06F
MARION*        FAIR      89  70  52 SW8       30.11S HX  95
HILLSVILLE*    FAIR      88  69  53 W3        30.08F
RICHLANDS*     FAIR      87  71  59 W7        30.10F
WISE*          PTSUNNY   86  59  39 NW6       30.12S
ABINGDON*      FAIR      91  69  48 NW8       30.06F HX  95
$$

MDZ021>025-VAZ099-100-262200-
SOUTHERN MARYLAND AND THE DELMARVA PENINSULA

CITY           SKY/WX    TMP DP  RH WIND       PRES   REMARKS
PATUXENT RIVER PTSUNNY   89  74  60 CALM      29.91F HX  98
BAY BRIDGE APT PTSUNNY   90  75  62 NW3       29.91S HX 100
LEONARDTOWN      N/A    N/A N/A N/A MISG        N/A
DOVER          NOT AVBL
GEORGETOWN     MOSUNNY   92  72  51 VRB5      29.91F HX  99
EASTON         PTSUNNY   93  77  59 NW7       29.95S HX 107
CAMBRIDGE      MOSUNNY   90  70  51 CALM      29.90F HX  95
SALISBURY      MOSUNNY   86  74  67 S7        29.91F
OCEAN CITY     PTSUNNY   85  73  67 S6        29.92F
WALLOPS ISLAND FAIR      86  73  65 SE7       29.92F
ACCOMACK*      FAIR      84  72  65 CALM      29.92F
$$

NCZ012>017-030>032-262200-
NORTH CENTRAL AND EASTERN NORTH CAROLINA

CITY           SKY/WX    TMP DP  RH WIND       PRES   REMARKS
ROANOKE RAPIDS MOCLDY    82  73  74 N9        29.93R
RALEIGH        MOSUNNY   96  73  47 W9        29.93F HX 105
ELIZABETH CITY MOSUNNY   94  78  60 SW8       29.89F HX 110
AHOSKIE*       CLOUDY    84  76  77 N10G16    29.93R
EDENTON*       MOSUNNY   95  75  52 W6        29.91S HX 107
CURRITUCK*     MOSUNNY   92  78  64 E7        29.91F HX 107
KILL DEVIL HLS SUNNY     95  75  52 E5        29.91F HX 106
MANTEO           N/A     90  78  67 E5        29.91F HX 105
CAPE HATTERAS  SUNNY     86  77  74 SW12      29.95F HX  97
TARBORO*       FAIR      95  77  55 S6        29.93S HX 110
GOLDSBORO      MOSUNNY   97  74  47 SW14      29.91F HX 109
WASHINGTON     MOSUNNY   94  77  58 W9        29.92S HX 108
GREENVILLE     SUNNY     95  77  55 SW8       29.94S HX 109
NEW BERN       SUNNY     95  75  52 W10G18    29.94F HX 107
WILMINGTON     MOSUNNY   91  73  55 SW10      29.96F HX  99
$$

VAZ048-262200-
ELSEWHERE

CITY           SKY/WX    TMP DP  RH WIND       PRES   REMARKS
HARRISBURG PA  PTSUNNY   91  75  59 SW5       29.88F HX 101
BALTIMORE      CLOUDY    92  68  45 NW8       29.91F HX  96
ANNAPOLIS      PTSUNNY   92  72  51 NW7       29.90F HX  99
ANDREWS AFB    FAIR      92  69  46 NW12      29.91F HX  97
PHILADELPHIA   CLOUDY    91  66  43 W10       29.89F
GREENSBORO     PTSUNNY   96  69  41 SW9       29.95F HX 102
ROCKY MOUNT    MOSUNNY   93  78  61 SW10      29.92F HX 108
$$

VAZ100-262200-
MARINE

STATION/POSITION TIME  TEMP    WIND        PRES    WAVE   SWELL
                       AIR SEA DIR/SP/G            HT/PER HT/PER
                 (UTC) (F)     (DEG/KT/KT) (MB)    (FT/S) (FT/S)
BRANDYWINE LGT   2000   85     240/  2/  2   N/A
CAPE MAY NJ      2000   82 72  230/  4/  5 1012.6F
LEWES DE         2000   85 76   50/  5/  6 1012.9F
OCEAN-CITY-INLET 2000   80 70  210/  5/  6 1013.7F
WACHAPREAGUE VA  2000   83 88  110/  4/  7 1013.6F
THOMAS POINT MD  2100   87 85  200/  3/  4 1014.1F
GOOSES REEF MD   2100   90 89  160/  6/  6 1013.7F   0
COVE POINT MD    2000   87     200/  8/ 12 1013.7F
SOLOMONS ISLAND  2000   82 86  200/ 14/ 17   N/A
BISHOPS HEAD MD  2000   87     230/  6/  6 1013.4F
PINEY POINT MD   2000           60/  6/ 10   N/A
POTOMAC MD       2100   88 87  170/  6/  8 1011.8F   0
CAMBRIDGE MD     2000   89 86  340/  4/  5 1012.2F
LEWISETTA VA     2000   87 86  120/  9/ 10 1012.9F
RAPPAHANNOCK LGT 2000          120/ 11/ 12 1014.0F
STINGRAY PT      2100   87 87   70/  8/ 10 1013.5F   0
YORK RVR RNG VA  2000   86     100/  7/  9 1013.0F
YORKTOWN VA      2000   86 84   80/ 12/ 13 1013.1F
JAMESTOWN VA     2100   93 90   90/  4/ 10   N/A     0
DOMINION TERM VA 2000   87      80/  9/ 13 1013.2F
KIPTOPEKE VA     2000      85  100/  9/ 12   N/A
CHES BAY BRIDGE  2000   81 79   50/ 12/ 14 1013.2F
CAPE HENRY VA    2000   81      70/ 12/ 13   N/A
WILLOUBY STN VA  2000   83      70/ 13/ 14   N/A
CAPE HENRY BUOY  2012      79                N/A     2/10
1ST LANDING BUOY 2100   80 80  110/ 10/ 12 1012.5F
CAPE CHARLES BUO 2026      78                N/A     2/ 6
OFFSHORE WE BUOY 2021      84                N/A     2/ 6
64NM E OF VA BCH 2050   83 81  250/  6/  6 1013.1F   4/ 6   3/ 6
DUCK PIER NC     2000   82 62  110/ 10/ 11 1012.8F
44100 DUCK FRF   2005      78                N/A     2/ 5
44056 DUCK FRF   2011      71                N/A     1/ 8
OREGON INLET NC  2000   86 84  200/ 16/ 17 1013.6F
HATTERAS NC      2000   85 83  220/ 11/ 17 1014.2F
DIAMOND SHLS NC  2050   85 85  230/ 19/ 21 1014.1F   5/ 6   2/ 9
CAPE LOOKOUT NC  2100   86     220/ 13/ 17 1014.1F
$$




USA.gov is the U.S. government's official web portal to all federal, state and local government web resources and services.